Theta_e
353 350 346 341 337 333 331 329 325 324 323 322 322 323 324 324 324 324 324 324 325 327 328 328 329 331 333 335 335 335 336 338 338 339 339 337 337 337 338 340 340 340 341 340 340 340 340 343 346 349 350 349 344 345 350 352 348 343 340 341 342 342 339 338 336 332 330 331 330 329 330 330 330 330 331 332 333 335 336 336 337 338 338 340 342
356 353 350 346 341 337 334 332 329 327 325 324 323 323 323 323 323 323 323 324 325 327 330 329 330 332 333 335 336 335 336 337 337 338 338 337 337 337 337 337 338 340 340 340 339 339 339 340 343 346 347 346 343 342 345 347 345 342 341 344 349 350 348 346 343 337 330 329 329 329 331 331 331 331 332 332 333 334 334 336 338 338 338 341 345
357 355 353 349 346 340 337 335 333 330 329 327 326 324 324 323 323 324 323 324 325 327 330 332 332 332 333 334 336 335 336 337 337 336 336 337 337 337 336 336 336 337 339 339 339 339 340 339 340 341 341 341 341 340 340 341 341 339 342 348 352 353 353 352 349 343 339 333 330 330 331 331 331 331 331 332 333 334 334 336 339 338 338 340 344
357 357 355 352 350 346 341 337 336 334 332 330 329 327 327 326 326 326 326 326 327 327 331 334 334 335 335 335 336 336 335 337 338 337 335 336 336 336 336 335 335 336 336 337 338 339 340 340 340 339 339 338 338 338 338 339 339 338 339 346 351 353 354 354 353 351 347 339 333 331 332 331 330 331 331 331 332 333 335 338 341 341 340 342 345
359 359 358 356 353 349 345 341 339 337 334 333 331 331 330 329 329 329 330 331 330 331 333 336 338 338 336 335 335 335 336 336 337 337 336 336 336 336 335 335 335 335 334 335 336 337 338 338 338 339 338 336 336 336 336 336 336 336 336 339 344 347 350 351 351 349 345 338 333 331 332 330 330 330 331 332 331 333 337 340 344 345 344 345 348
361 361 360 358 356 353 349 345 342 339 337 336 335 334 334 334 333 333 333 335 335 335 336 338 340 340 338 337 335 335 336 335 335 336 336 336 337 336 336 335 335 335 334 334 334 335 336 335 336 336 336 333 332 332 333 333 333 335 335 334 334 337 340 341 340 338 337 334 332 331 330 330 330 329 331 333 332 334 339 342 342 346 350 351 350
363 363 362 360 358 355 351 347 343 341 339 338 337 336 336 338 337 335 335 337 338 338 338 340 342 341 339 338 337 336 336 336 335 335 335 336 335 335 335 334 334 334 333 334 334 334 335 334 334 334 333 332 330 330 330 331 332 332 334 335 334 335 335 334 333 333 333 332 330 330 329 329 329 329 330 333 334 337 345 348 344 344 350 352 350
363 364 364 362 360 357 353 349 346 343 341 340 339 338 339 340 340 340 339 339 340 339 338 339 341 341 339 339 337 337 337 337 336 335 335 335 335 335 335 334 334 333 333 332 332 332 332 332 332 332 333 333 332 330 331 332 333 333 334 335 337 338 336 333 333 333 333 332 330 330 329 329 328 329 328 332 333 335 343 351 350 349 350 348 345
364 365 364 363 361 359 355 352 349 346 343 342 341 340 341 342 343 343 343 343 342 341 340 340 341 341 340 340 339 338 339 338 337 335 335 335 334 333 333 334 333 333 333 333 332 331 330 329 329 330 332 332 332 331 331 332 333 333 333 334 337 340 339 336 335 334 333 331 330 329 329 328 328 328 328 329 331 333 343 352 352 351 348 344 341
365 366 365 364 363 360 357 354 352 349 346 344 343 343 342 344 345 345 344 344 344 345 346 345 344 343 342 341 341 341 340 339 337 335 335 334 333 333 332 332 332 332 332 332 332 331 330 329 328 328 329 330 330 332 334 336 337 338 338 339 339 341 340 337 334 333 332 331 330 329 329 327 327 327 327 327 328 333 341 348 347 343 343 342 342
366 366 366 365 364 363 360 357 355 353 350 347 345 344 344 345 346 346 346 346 347 348 350 351 349 347 345 343 342 342 341 338 336 335 334 333 334 333 332 332 332 331 332 331 331 331 329 328 327 327 328 329 332 339 343 344 343 343 343 342 342 341 339 336 333 332 332 330 329 328 328 328 327 326 327 327 328 331 336 339 339 338 341 344 345
366 367 367 366 365 364 362 359 357 354 352 350 348 346 346 347 348 349 349 349 350 351 352 353 353 350 349 348 345 343 340 337 334 334 334 333 333 333 333 332 332 332 331 331 331 330 330 329 329 328 328 331 339 349 351 348 346 346 343 341 340 340 337 334 332 332 331 331 329 328 326 326 326 327 327 327 329 331 334 335 338 341 345 348 349
367 367 367 367 366 365 363 361 358 356 354 353 351 350 349 349 350 351 352 351 352 353 353 353 354 354 353 352 350 347 343 339 336 335 334 333 333 333 333 333 332 332 331 331 331 331 330 331 331 331 329 330 337 346 348 347 347 347 344 340 338 336 334 331 330 330 331 331 329 327 325 326 326 327 330 333 334 336 339 341 344 348 349 351 352
366 366 367 367 367 366 365 363 360 358 357 355 354 353 351 350 351 352 354 353 354 355 354 354 354 355 355 355 353 351 346 343 339 337 336 335 334 334 334 334 334 333 332 332 332 331 330 331 331 332 332 331 332 335 337 338 338 339 338 336 332 330 329 328 328 328 329 329 327 326 325 327 329 331 334 338 340 342 345 347 350 352 353 354 354
366 366 367 367 366 365 365 363 361 359 358 356 355 355 353 352 352 354 355 356 355 355 356 355 354 354 355 356 355 354 351 347 343 341 340 338 336 336 337 336 335 335 335 334 333 332 331 331 332 331 332 333 334 335 335 335 335 334 332 329 327 326 326 326 326 326 327 328 327 327 327 331 334 334 337 343 346 347 350 351 352 354 356 356 355
365 366 366 367 366 365 365 364 362 360 359 357 357 356 354 354 353 354 356 357 357 357 357 356 356 354 355 356 356 355 355 352 349 346 343 341 341 341 341 340 338 337 337 335 335 334 333 333 332 331 330 329 331 334 335 337 339 338 333 328 326 325 325 324 324 325 326 327 328 329 333 337 339 338 343 349 351 351 353 354 352 354 357 357 355
364 366 367 366 366 365 365 364 363 361 360 359 357 357 356 354 353 354 356 358 358 358 358 357 356 355 354 355 356 356 356 355 353 350 347 345 345 346 344 342 339 338 337 337 337 336 335 334 333 332 330 328 327 329 332 335 338 337 333 331 328 327 325 324 324 325 326 327 329 333 336 338 338 339 343 350 352 354 356 354 351 355 359 358 355
364 364 366 366 366 365 365 364 364 362 361 359 358 357 356 355 354 354 356 358 358 358 357 357 356 355 354 353 354 355 357 356 355 353 351 350 350 349 347 344 341 339 339 339 339 339 338 336 335 336 333 329 326 327 331 334 336 335 333 332 331 329 326 324 324 326 327 328 330 333 334 333 335 339 345 351 354 357 357 354 353 356 358 356 356
364 364 364 365 366 365 365 364 363 362 361 360 358 357 356 356 355 354 355 357 358 358 357 357 356 356 355 353 353 354 355 356 355 355 354 353 353 352 352 351 348 344 341 340 340 340 338 335 336 336 333 330 328 327 329 333 334 333 334 335 335 331 327 327 329 330 331 333 333 333 334 334 337 342 348 353 356 358 357 355 355 357 356 355 357
363 363 364 365 366 366 365 364 364 363 363 362 360 358 357 357 356 356 355 355 357 358 357 357 357 356 356 356 354 353 354 355 356 356 355 355 354 354 356 356 352 345 342 340 339 339 337 334 333 333 332 331 330 329 329 331 331 331 333 335 334 330 328 331 334 335 336 336 335 335 336 338 341 344 348 351 354 355 356 357 356 356 355 356 359
363 362 363 364 365 366 366 364 364 364 364 362 361 360 359 358 357 357 355 355 356 357 358 357 357 357 356 357 357 355 354 353 353 353 353 354 353 354 355 354 348 343 342 340 339 339 338 336 335 334 333 332 331 331 330 331 331 331 332 333 332 331 332 334 336 338 339 339 339 341 343 344 347 350 352 354 355 355 356 357 357 355 357 358 359
362 362 362 362 364 366 365 365 365 365 364 364 363 361 361 360 359 358 357 356 356 356 357 358 358 358 358 358 357 357 354 352 351 350 349 348 348 349 349 345 341 341 342 342 340 340 339 339 338 337 337 337 336 335 334 333 334 334 333 333 334 335 337 337 339 340 341 342 344 346 347 349 352 354 356 357 357 357 358 357 356 356 356 356 356
362 362 361 362 363 365 366 365 366 365 365 365 364 363 362 362 360 360 359 358 357 356 357 358 359 359 359 359 358 357 355 354 351 347 346 345 345 345 345 343 341 343 345 344 343 342 341 341 341 341 341 341 341 340 340 339 339 338 337 338 339 341 343 345 345 345 345 346 347 347 347 350 353 356 357 357 356 357 357 356 356 356 353 353 356
359 362 361 361 362 364 365 366 366 366 367 366 365 365 364 363 362 361 360 359 358 356 356 357 359 360 361 360 359 358 356 355 353 348 345 345 346 347 348 348 348 348 349 348 346 346 346 346 346 345 345 345 345 345 346 347 346 346 345 346 347 348 350 350 350 350 350 350 349 347 346 347 349 352 354 356 357 357 356 355 355 353 350 353 357
357 361 362 361 361 363 364 366 366 367 367 367 366 366 365 364 364 363 361 361 359 357 356 356 357 359 360 360 359 357 356 356 355 352 348 348 351 352 353 352 352 352 352 352 351 351 352 351 351 351 350 350 350 350 351 351 352 351 352 353 354 354 354 353 353 352 352 351 350 349 350 349 348 348 348 350 352 352 351 351 350 349 351 355 358
356 361 362 361 361 363 364 366 367 367 368 367 367 367 367 366 365 364 363 362 360 358 356 355 355 357 359 359 358 356 356 356 355 354 352 353 354 354 353 354 355 357 356 356 356 356 356 355 355 355 355 355 355 355 355 354 355 356 357 357 357 357 356 355 355 353 353 353 353 353 353 352 350 349 348 348 348 348 348 349 350 352 354 357 359
357 361 362 361 362 362 364 365 367 368 369 369 369 369 368 366 366 366 365 364 362 360 358 356 354 354 355 357 357 356 356 356 356 354 355 355 355 354 353 355 358 360 359 359 358 358 358 358 358 358 357 358 358 359 360 360 360 360 360 360 359 358 358 357 357 356 356 356 356 356 355 353 351 350 350 349 350 350 351 353 355 357 358 359 358
360 362 363 361 363 363 364 365 366 368 369 369 369 369 368 367 366 366 366 365 364 362 360 357 355 353 352 353 355 356 357 356 355 353 352 353 354 354 355 357 359 360 360 359 358 359 359 360 359 359 359 359 359 360 361 362 362 361 360 360 360 359 359 359 358 358 357 357 357 357 356 354 352 352 352 353 354 354 355 355 356 357 358 356 351
363 363 363 362 362 363 363 365 366 367 368 369 369 369 369 368 368 368 367 367 365 362 361 358 354 352 351 351 351 354 354 353 351 349 349 350 352 353 354 355 357 358 358 357 359 360 360 361 360 360 360 360 359 359 360 360 361 360 360 360 360 359 359 358 358 358 358 357 357 356 355 354 353 355 356 356 355 355 354 354 354 355 354 350 343
367 364 364 364 364 364 364 365 367 367 368 369 369 369 369 369 369 369 368 367 366 364 362 358 353 351 350 349 348 348 348 346 346 348 350 352 353 354 355 356 357 357 357 358 360 361 361 361 361 361 361 361 360 360 359 358 359 358 359 359 359 359 358 358 358 358 357 357 356 355 354 354 355 356 356 355 354 354 353 354 353 351 348 343 337
369 368 366 364 364 365 365 365 367 368 367 368 369 369 369 370 369 370 370 368 367 366 364 361 357 354 352 350 348 348 347 346 347 349 350 353 355 356 357 356 358 359 361 361 362 362 362 362 362 362 362 362 361 361 361 359 358 357 357 358 358 359 359 359 359 358 358 357 356 356 356 356 355 354 354 355 354 354 353 351 349 346 343 336 330
367 369 369 368 367 367 367 366 367 368 368 369 369 369 369 370 370 369 369 368 367 366 365 364 360 358 355 353 351 351 350 351 351 351 352 354 355 356 355 356 359 362 364 363 363 363 362 362 363 362 362 362 362 362 361 360 359 358 358 358 359 360 360 360 359 358 358 357 357 357 357 356 355 354 353 354 354 353 350 347 344 343 338 331 328
365 366 369 370 369 368 369 368 368 368 368 368 368 368 368 369 370 370 369 368 368 366 365 365 362 360 358 357 355 354 353 353 353 353 354 355 356 355 356 358 361 364 365 365 364 364 364 363 363 363 363 363 363 363 363 361 361 359 359 359 360 360 360 359 358 358 359 358 358 358 357 356 356 355 354 354 353 351 349 346 342 338 333 328 330
365 365 367 369 370 368 368 368 368 367 367 365 364 364 364 366 368 369 369 368 368 367 366 365 363 361 361 359 358 358 357 356 356 356 355 356 357 359 359 362 364 365 366 366 365 365 364 364 364 364 363 363 363 363 363 362 362 361 360 360 360 360 360 360 359 359 359 358 358 358 357 356 355 354 353 353 351 348 347 346 341 334 330 331 335
364 364 364 367 368 367 365 366 367 367 366 366 363 361 361 361 364 367 368 368 368 367 365 365 364 363 362 361 360 360 360 359 360 360 359 359 362 364 365 365 366 366 366 366 365 365 365 365 365 364 364 363 363 363 362 362 362 362 361 360 360 360 360 359 359 359 359 358 358 357 356 355 354 352 351 349 347 345 344 340 336 333 335 337 338
362 363 364 365 365 364 362 363 364 365 365 366 364 362 360 359 361 365 368 368 368 367 365 364 364 364 363 362 362 362 361 362 363 364 364 364 364 366 366 366 366 366 365 365 365 365 365 364 364 364 364 363 363 362 361 361 362 361 361 361 360 360 360 360 360 359 359 358 356 355 354 353 352 350 347 344 342 339 335 332 332 336 339 339 338
357 360 360 361 361 362 362 362 363 364 365 364 363 362 361 361 363 365 367 368 367 366 365 364 364 364 364 364 363 363 363 363 365 366 365 365 365 366 366 365 365 365 365 365 365 365 365 364 365 364 364 363 363 362 361 361 361 362 362 361 361 360 360 359 359 358 357 355 354 353 352 350 349 347 344 341 336 331 328 330 334 337 338 337 336
350 353 355 356 356 358 360 361 362 363 363 362 362 362 361 361 362 364 365 366 367 367 366 365 364 364 364 364 365 365 365 365 365 366 366 365 366 366 365 365 366 365 365 366 365 365 365 364 363 363 363 362 361 362 361 360 361 361 361 361 361 360 359 358 356 353 351 351 351 351 349 347 344 341 338 335 331 328 330 334 337 336 336 335 336
345 347 349 351 354 355 358 359 361 361 362 362 362 363 362 362 362 363 364 366 366 366 366 365 363 363 364 365 365 366 366 365 366 366 366 366 366 366 365 365 365 365 365 365 364 364 364 363 362 362 363 361 361 361 360 360 360 360 359 358 358 356 355 354 352 350 348 349 349 348 344 340 336 332 330 328 327 329 333 336 336 335 335 335 335
341 343 345 349 353 356 356 356 357 359 361 360 360 362 363 363 362 362 363 364 365 366 366 365 364 363 364 365 365 365 365 366 365 366 366 366 365 366 365 365 364 364 363 363 363 362 362 361 361 361 360 359 357 357 357 356 355 354 355 353 351 349 349 349 349 348 347 344 341 337 334 331 329 327 328 329 330 332 334 335 335 335 335 335 335
339 341 344 347 351 354 354 354 354 355 355 355 357 360 361 362 361 361 361 363 363 364 365 365 364 364 364 366 365 365 365 365 365 365 365 365 364 364 363 363 362 363 362 361 361 360 360 360 360 359 357 356 355 354 354 353 351 350 351 350 348 346 345 344 342 340 338 334 331 329 329 328 328 329 331 333 333 334 334 334 334 335 335 335 335
338 339 341 344 348 351 351 349 350 351 352 353 355 358 359 358 358 358 359 361 362 363 364 364 363 364 365 365 365 364 363 363 363 363 363 363 362 362 361 359 359 359 359 358 358 358 358 358 358 356 355 354 353 352 351 350 350 349 349 348 346 344 341 337 334 332 330 328 328 330 331 331 331 332 333 334 334 334 334 334 333 333 333 334 334
336 338 340 341 342 344 344 342 345 352 354 352 352 354 354 354 355 355 358 360 362 361 362 362 361 362 363 362 360 359 359 358 358 358 359 359 359 358 358 357 356 356 355 355 355 355 355 355 354 353 351 350 349 347 346 347 347 346 344 342 341 339 336 334 332 331 328 328 329 332 333 333 333 333 333 333 333 333 333 333 333 332 333 333 333
332 336 339 339 339 340 339 335 337 346 353 351 350 351 352 352 353 355 357 359 360 360 360 360 359 359 359 357 356 355 355 354 354 354 354 354 355 354 354 354 353 353 352 352 352 352 351 351 350 349 348 346 344 342 341 340 340 338 337 336 335 334 333 333 332 331 329 328 330 332 333 332 332 331 331 332 332 331 331 332 331 330 331 332 331
331 334 337 339 339 340 337 331 331 340 348 348 347 348 349 350 352 355 356 359 360 359 358 356 355 354 354 353 352 352 352 352 352 352 352 352 353 352 352 350 349 349 349 348 348 347 347 346 346 345 344 342 340 338 336 335 335 334 332 332 331 331 333 333 332 331 330 329 330 332 332 331 331 331 331 331 330 331 331 330 329 329 329 329 329
331 332 334 336 337 338 337 334 334 339 345 345 345 345 346 348 351 354 355 356 355 353 351 350 349 348 349 348 348 347 348 348 348 348 348 347 346 345 344 343 343 343 343 342 341 341 341 340 340 339 339 338 336 335 333 333 333 333 332 331 330 331 332 333 332 331 330 330 330 332 331 330 329 329 329 328 328 329 329 329 329 328 328 327 327
331 331 332 333 333 334 336 336 337 338 338 339 339 340 341 342 345 347 347 347 346 345 345 344 343 342 342 342 341 342 342 342 342 341 341 340 339 338 336 336 337 337 337 336 335 335 335 335 334 334 334 334 333 332 332 331 331 331 330 329 329 329 330 330 330 329 329 329 329 330 330 329 329 329 329 328 328 328 328 328 327 327 326 326 326
330 331 331 332 330 329 330 332 334 334 335 335 335 334 335 335 337 338 338 338 337 338 338 338 337 336 337 336 337 337 337 336 336 336 335 334 334 332 331 332 332 333 333 332 331 330 330 330 329 329 329 329 329 329 328 327 328 328 328 328 328 327 328 328 328 328 328 328 328 328 329 328 328 328 328 327 327 327 326 326 326 325 325 325 324
330 330 331 331 330 329 327 327 327 329 332 333 333 333 332 333 333 333 333 333 332 332 334 334 334 333 334 334 334 333 333 333 332 331 331 331 331 330 329 329 329 330 330 330 329 328 327 327 327 326 326 326 326 327 326 326 326 327 327 327 326 326 326 326 327 327 327 327 327 327 327 327 327 327 327 326 326 325 325 325 324 324 324 323 323
329 329 329 329 329 330 329 328 327 327 328 329 330 331 331 332 331 330 330 332 332 330 331 333 333 332 332 333 332 332 331 330 328 327 327 327 327 328 328 328 327 327 327 327 327 326 326 325 326 325 325 325 325 325 326 326 326 326 326 326 327 326 326 326 326 326 325 325 324 323 323 323 323 323 323 323 323 322 322 322 321 321 321 320 319
326 327 327 326 325 326 326 327 327 328 328 328 328 328 330 331 330 329 329 329 328 327 328 330 330 330 330 331 331 331 330 329 327 326 326 325 324 325 326 325 325 325 325 324 324 324 324 323 323 323 322 322 323 323 324 324 324 323 323 324 324 323 323 323 322 322 321 321 321 320 320 320 320 320 320 321 320 320 320 319 319 319 319 318 318
Wind_Speed
47 48 48 47 46 44 43 42 41 41 40 40 40 39 38 37 35 33 31 30 28 26 25 23 22 21 21 20 20 20 20 20 18 18 18 17 16 17 17 17 16 15 14 15 16 16 16 16 16 15 14 13 12 11 11 11 11 11 10 8 7 7 7 8 10 8 4 4 5 5 6 8 10 11 13 14 13 13 15 15 15 15 14 15 14
46 47 48 48 48 46 45 43 43 42 41 41 40 39 39 37 36 34 33 32 30 28 27 25 24 23 23 22 21 21 21 21 20 20 19 18 17 18 18 18 18 17 16 16 16 17 17 17 17 17 16 15 14 12 12 13 13 13 12 9 8 8 9 9 11 12 9 7 7 8 9 11 12 13 14 15 14 14 15 13 13 13 14 15 14
46 46 47 48 49 47 46 45 45 44 43 43 41 40 39 38 37 36 35 33 32 30 29 27 26 26 25 24 22 22 22 21 22 22 20 19 19 19 19 19 19 18 18 17 17 17 17 17 17 17 17 16 16 15 14 14 14 14 13 11 11 11 11 12 13 14 15 14 12 12 13 14 14 15 15 15 15 16 16 15 15 15 16 16 16
45 45 46 47 48 48 48 47 46 46 45 44 43 42 41 40 39 38 36 35 33 31 30 29 29 28 27 26 24 24 23 23 22 23 22 21 20 20 20 20 20 19 19 18 18 18 18 18 17 16 16 17 17 16 16 15 14 14 13 13 14 14 13 14 15 16 18 19 17 15 15 16 16 16 16 17 17 18 17 17 17 17 18 18 18
44 45 46 46 48 49 50 49 48 48 47 46 45 43 42 41 40 39 38 36 35 33 31 31 31 31 30 28 27 25 25 24 24 23 22 22 22 21 21 21 20 19 19 18 19 19 19 18 18 17 17 17 17 17 16 15 15 15 15 15 16 16 16 16 17 17 19 20 18 16 16 17 17 17 17 18 20 19 18 18 18 18 20 20 20
42 43 44 46 48 49 50 51 50 49 48 47 46 44 43 42 41 40 39 37 35 34 33 32 32 32 31 29 28 27 26 25 25 24 23 23 23 22 22 22 21 20 19 19 19 19 20 19 19 18 18 18 18 18 17 16 16 16 16 16 16 16 17 16 16 16 17 17 17 17 17 17 18 18 17 18 20 20 19 19 19 19 20 21 21
40 41 43 45 48 50 51 51 51 50 49 48 46 45 44 43 42 41 39 38 36 35 34 34 33 33 32 31 29 28 27 27 26 26 25 24 23 23 22 22 22 22 20 19 19 19 19 19 19 20 20 20 19 18 18 18 18 17 17 16 16 16 16 15 14 14 15 16 18 18 18 19 20 20 19 19 20 19 18 19 22 21 20 21 23
39 40 42 45 47 50 52 52 51 50 49 48 47 46 45 44 42 41 39 38 37 37 35 34 34 33 33 32 30 29 29 28 28 28 27 26 25 24 23 22 23 23 22 21 20 19 19 19 19 19 20 19 19 18 18 18 18 18 18 17 16 16 16 15 15 15 16 17 19 19 20 21 21 21 21 21 21 20 18 18 22 22 21 23 25
40 40 42 44 47 49 50 51 51 50 49 48 47 47 45 44 42 41 39 38 38 38 37 35 34 34 34 33 32 31 30 30 29 29 29 28 27 25 24 23 23 23 23 22 22 21 20 20 20 19 19 19 19 18 18 19 19 20 19 17 17 17 17 16 16 16 17 18 20 20 21 23 23 22 23 22 22 21 19 18 21 23 23 26 26
41 42 43 45 46 47 48 50 50 50 50 49 47 47 46 44 43 41 40 38 38 38 38 37 36 35 34 34 34 33 32 32 30 30 29 29 28 27 25 24 24 23 23 23 23 22 21 21 20 20 19 19 19 18 17 17 18 18 18 17 18 19 19 18 18 18 19 20 21 21 23 25 24 23 24 24 23 23 21 21 23 24 26 27 24
42 42 43 45 45 45 47 48 49 50 50 49 48 47 46 44 43 42 41 39 37 37 39 39 38 37 36 35 35 34 34 32 31 30 29 29 29 28 27 25 24 24 24 23 23 22 21 21 20 20 20 20 19 18 17 17 17 18 17 17 18 19 20 20 20 20 20 22 22 23 24 26 25 24 24 24 24 24 23 24 25 25 26 27 24
43 43 43 44 45 45 46 47 48 50 49 49 49 47 46 45 44 43 42 40 38 37 39 40 40 38 37 37 36 35 34 32 31 30 30 29 29 29 28 27 26 26 25 24 24 23 22 22 21 20 20 20 21 21 21 20 20 20 20 20 20 20 20 21 21 21 22 23 24 25 25 26 26 25 24 24 24 24 24 24 24 25 24 23 22
43 44 44 45 46 45 46 46 47 49 49 49 49 47 47 46 45 44 43 41 39 38 38 40 40 39 38 38 37 36 34 32 31 30 30 30 29 29 29 29 28 27 27 26 25 25 24 23 23 22 20 19 21 23 24 24 24 24 24 23 22 22 22 22 22 22 23 24 25 26 25 25 25 24 20 20 22 22 22 22 21 22 21 20 19
42 45 45 45 46 46 46 46 47 48 48 48 48 48 48 47 46 45 44 42 41 40 39 39 40 40 39 38 37 36 34 32 30 30 30 29 29 29 29 29 30 29 28 28 27 27 26 25 25 24 23 21 21 22 23 24 24 25 25 24 22 21 21 22 22 23 24 24 25 26 25 23 23 21 17 16 19 19 19 19 19 20 19 18 18
42 44 46 46 46 47 47 47 46 47 47 48 48 48 48 48 47 46 45 44 43 42 40 39 40 40 40 39 37 36 34 32 30 28 28 27 28 30 30 30 30 31 31 30 29 28 27 26 26 25 24 24 24 24 24 23 23 23 23 23 21 21 21 22 23 23 24 25 25 26 24 20 20 20 17 16 17 17 17 18 19 20 20 18 19
43 43 46 48 48 48 48 48 47 47 47 47 48 49 49 48 48 47 45 45 44 43 42 40 39 40 40 40 38 37 36 33 30 28 26 24 25 28 30 30 30 31 32 31 31 30 29 28 27 26 25 24 24 25 26 26 27 27 26 25 23 23 24 23 23 24 25 25 25 24 22 20 19 19 17 16 17 17 18 19 19 19 19 20 21
45 45 45 47 49 49 48 49 48 47 47 48 48 49 49 48 48 47 46 45 44 44 43 42 41 40 40 41 40 38 37 35 32 30 28 25 24 25 27 28 29 31 31 31 32 32 31 29 28 27 26 24 22 22 24 27 29 30 29 28 27 27 26 25 24 25 25 25 25 24 23 22 22 20 18 18 20 19 19 21 19 18 19 21 23
46 47 47 47 49 49 49 49 49 48 48 49 49 49 49 48 48 48 47 46 45 44 43 43 42 41 40 41 41 40 38 36 34 32 30 28 26 24 24 25 27 28 29 30 32 32 32 31 29 28 27 25 23 22 23 25 27 29 29 29 29 29 28 26 26 26 27 27 27 26 26 25 24 21 19 19 20 20 21 23 20 18 19 22 23
46 47 48 46 47 49 49 48 49 49 49 50 50 49 49 48 48 48 48 47 44 43 43 43 43 42 41 40 41 42 40 37 35 33 32 30 28 26 25 25 25 26 27 27 29 31 33 33 32 31 30 28 26 25 25 26 27 28 28 28 30 31 29 27 27 28 28 28 29 28 28 26 24 23 21 20 20 21 22 22 19 18 20 21 21
46 46 46 45 45 47 49 49 49 50 49 50 50 49 49 48 47 47 48 48 45 43 41 42 42 42 42 40 40 42 42 40 38 35 33 32 30 29 28 28 27 27 27 26 27 28 30 32 33 33 32 31 30 29 29 29 30 29 29 30 32 31 29 29 29 29 29 30 30 29 28 26 25 24 23 22 21 22 22 20 18 18 20 20 19
46 45 45 46 45 46 49 49 49 50 49 48 48 48 48 48 48 47 48 48 47 44 41 41 41 41 42 41 41 41 41 41 40 39 37 35 34 32 32 32 31 30 29 28 28 27 27 28 30 31 31 32 32 32 32 32 32 32 33 33 33 32 31 31 31 30 31 31 30 29 28 27 27 26 24 23 22 21 20 19 18 18 18 20 22
43 46 45 46 46 45 47 49 49 48 48 47 47 48 48 48 47 47 47 48 48 46 43 41 41 41 41 41 41 41 40 39 39 39 38 38 37 36 36 35 33 32 32 31 30 28 26 26 26 26 27 29 30 31 32 32 33 34 34 33 32 32 31 31 30 30 30 31 31 30 29 28 28 27 24 22 20 19 18 18 19 19 20 22 23
39 46 46 46 47 46 46 48 48 47 47 47 47 47 47 46 47 47 47 47 47 47 46 43 41 40 40 39 39 39 38 38 37 35 35 35 36 37 37 36 34 33 33 32 30 28 26 26 25 24 24 25 27 28 29 29 30 31 31 29 29 28 28 29 29 29 29 30 31 31 30 30 29 27 24 22 20 19 20 21 21 22 23 25 23
36 44 47 46 47 47 45 46 47 46 46 46 46 46 46 46 46 46 46 47 47 48 48 46 42 40 39 38 37 36 35 36 35 33 31 31 32 34 35 35 33 32 33 32 30 28 28 27 26 25 25 25 25 25 25 26 26 27 26 25 24 24 25 27 27 28 29 30 30 31 31 30 30 29 28 25 23 23 24 25 25 26 27 26 23
34 42 48 47 47 47 46 45 46 45 45 45 46 46 46 45 46 46 46 47 48 49 49 48 45 42 40 39 38 36 35 34 34 32 31 30 29 29 30 31 30 30 30 30 29 29 29 29 28 28 28 27 26 25 25 24 24 24 23 22 21 22 24 25 25 26 28 28 28 28 28 27 27 26 25 25 26 27 28 28 28 28 27 25 22
34 41 47 48 47 47 45 45 46 45 44 45 45 45 46 46 46 46 46 47 48 49 50 50 48 45 43 41 39 38 36 35 34 33 31 29 28 28 28 28 28 27 27 28 29 31 31 30 30 30 29 27 26 25 25 24 23 23 22 21 22 23 24 24 24 25 25 25 25 26 26 24 23 21 19 19 21 22 23 24 24 24 23 22 21
34 41 47 48 47 46 46 45 45 44 43 43 43 44 45 46 46 47 47 49 50 50 50 50 50 49 47 44 42 40 38 37 36 34 32 31 30 30 29 28 27 27 27 28 29 30 31 31 31 31 30 28 26 25 26 26 25 25 24 24 24 24 25 24 24 24 25 25 25 26 25 23 20 18 16 15 15 16 17 19 19 19 20 20 20
33 40 47 48 46 46 46 45 45 44 42 42 42 43 44 45 46 48 50 51 52 51 51 51 51 51 50 47 45 42 40 40 39 38 36 35 33 32 31 30 29 29 29 28 28 29 31 33 33 32 31 30 29 29 29 28 28 27 27 27 27 26 26 25 26 26 26 26 26 26 24 22 20 17 15 14 14 14 15 16 17 18 20 20 19
34 41 46 48 47 46 45 45 45 43 42 42 41 42 42 44 45 47 48 50 51 51 51 51 50 49 49 48 47 46 44 44 43 42 39 38 36 34 32 30 30 29 28 26 26 29 32 32 32 31 31 31 31 32 32 32 31 30 30 29 29 28 27 27 27 27 26 25 23 22 20 18 17 15 14 15 15 15 15 17 18 19 19 18 16
35 43 46 47 46 46 46 45 44 43 42 41 41 42 42 43 44 45 46 47 48 49 49 49 47 46 46 47 46 45 44 43 43 42 41 39 37 35 32 29 28 27 25 24 26 29 30 30 30 30 30 30 31 31 32 32 33 33 33 32 31 30 29 29 27 25 22 18 15 14 13 13 13 15 16 17 19 19 19 20 20 19 16 15 14
28 37 43 45 45 46 46 44 43 44 43 42 42 43 43 43 43 45 46 45 45 46 47 46 45 45 45 45 44 43 43 41 41 41 41 39 36 34 32 29 27 24 23 23 27 30 30 30 31 30 29 30 30 30 30 31 31 32 32 31 31 29 27 26 23 20 18 15 12 10 11 12 14 15 17 18 19 20 20 19 18 16 14 13 12
24 28 34 39 41 42 43 43 43 44 43 41 41 43 44 44 44 44 45 44 44 45 45 45 45 44 43 42 42 42 41 40 39 38 38 37 36 34 31 29 25 22 21 23 26 29 29 30 31 30 30 30 29 29 29 29 29 29 29 28 27 23 20 19 18 18 19 18 13 11 13 14 16 17 18 19 20 20 18 16 14 13 13 12 10
27 26 28 34 37 38 40 42 43 43 42 41 40 39 41 43 44 44 43 43 43 43 44 44 44 43 41 40 39 39 37 36 35 33 33 33 32 30 29 27 24 22 22 23 25 26 27 29 30 30 30 30 28 27 28 28 28 28 28 26 23 19 17 17 18 20 22 20 17 16 16 16 18 19 19 20 21 21 19 17 14 14 15 13 10
31 30 30 32 34 37 39 41 44 46 47 45 42 38 37 38 40 42 41 41 41 42 42 43 43 41 39 38 36 35 33 31 29 27 27 27 26 25 25 25 24 23 24 24 25 25 25 27 28 28 27 26 24 23 24 25 25 25 24 23 21 20 20 21 22 23 24 23 22 21 20 18 20 21 21 21 21 21 20 19 17 15 13 10 9
31 33 33 32 33 35 35 36 39 42 43 43 42 41 40 38 39 42 43 42 41 41 41 41 41 38 37 35 34 32 30 29 26 24 24 24 24 24 24 25 26 27 27 27 26 25 25 25 25 25 23 22 21 21 21 21 20 19 20 21 22 22 22 23 23 24 25 25 25 24 22 20 20 21 21 20 20 20 20 20 16 11 7 8 9
27 30 32 33 35 35 32 31 33 35 37 38 40 42 41 40 41 44 46 44 42 41 41 40 39 36 35 34 33 31 29 28 26 25 25 26 25 25 26 27 27 28 28 27 26 25 24 24 23 23 22 21 20 20 21 21 20 20 20 22 24 25 25 25 25 27 28 28 27 24 21 19 18 19 19 17 16 17 18 16 12 9 8 10 10
17 23 26 28 29 31 32 31 31 33 36 38 39 41 42 42 42 44 46 45 43 42 41 39 38 36 35 34 32 31 30 29 27 26 26 27 26 26 26 26 26 26 26 26 26 25 25 24 24 23 22 21 21 21 21 21 22 24 25 25 26 27 28 28 29 30 30 27 24 21 17 16 17 18 17 14 14 14 12 10 9 9 9 10 10
5 13 18 16 13 19 30 33 31 32 36 38 39 41 43 42 41 42 43 45 44 43 42 40 37 36 35 33 31 30 30 29 28 27 27 27 26 26 26 25 24 24 25 25 26 26 25 25 24 23 21 21 21 22 22 22 24 26 27 28 29 30 30 30 29 27 25 22 19 17 15 14 15 15 14 14 14 12 10 10 10 9 9 10 10
6 2 8 10 12 17 27 30 29 33 37 39 39 39 39 39 41 42 44 46 47 45 43 40 37 35 34 33 30 28 27 27 27 27 27 27 27 27 27 27 26 26 26 26 26 26 25 25 24 23 22 22 22 24 25 25 25 25 25 25 25 26 26 25 24 22 20 17 16 15 14 11 11 11 11 11 13 12 12 13 13 13 12 11 10
12 7 2 10 17 21 24 24 25 30 35 37 37 36 37 39 41 41 43 46 47 45 43 41 38 36 34 32 30 29 28 27 27 27 27 28 28 28 27 27 27 27 26 25 25 26 26 26 25 24 23 22 22 22 22 21 20 20 19 19 18 16 16 16 16 16 14 12 11 11 9 8 8 8 7 9 12 14 14 15 15 14 14 13 12
16 11 5 7 14 19 20 20 21 24 29 33 34 35 37 40 40 39 41 44 44 43 42 40 38 35 34 32 31 31 31 31 30 29 29 29 29 28 28 26 24 24 24 24 25 26 26 25 24 24 23 22 20 19 19 18 16 15 15 15 15 13 12 11 11 10 9 8 8 8 8 7 8 8 8 9 12 13 14 14 15 15 16 15 15
21 16 10 6 10 15 17 17 18 22 26 29 31 33 35 37 38 38 40 41 40 38 37 35 33 32 32 31 29 29 29 30 31 31 31 30 29 28 26 24 22 22 23 24 24 25 25 24 24 23 22 21 20 20 20 19 18 17 16 16 15 14 13 12 12 12 11 11 10 9 9 8 8 8 9 9 9 10 10 11 12 13 13 13 14
24 21 17 12 8 13 18 22 24 28 30 29 29 32 32 32 35 37 38 38 35 33 32 31 28 27 26 24 23 22 22 24 26 28 29 29 28 26 25 23 23 23 23 23 23 23 23 22 21 19 18 17 16 16 17 16 16 16 15 15 14 14 15 14 13 13 12 12 13 13 12 10 8 6 6 6 7 7 8 8 7 7 8 8 9
23 23 20 17 14 14 18 23 26 30 33 32 33 35 35 35 37 36 35 34 32 29 26 25 23 22 22 21 21 22 22 23 24 24 25 25 25 24 23 23 23 24 24 23 22 21 19 18 16 15 14 14 15 15 15 15 14 14 13 13 14 14 14 13 12 12 12 13 14 14 14 13 12 10 8 8 9 8 7 7 7 7 7 8 8
20 21 20 20 20 16 14 18 25 31 34 33 34 34 33 33 34 33 30 29 28 25 23 23 22 22 22 22 22 24 26 27 26 25 24 24 23 23 24 24 25 25 24 23 21 19 16 14 13 13 14 15 16 16 16 15 15 14 13 13 14 13 13 13 13 12 12 12 13 14 14 15 15 14 12 12 12 12 11 11 11 10 10 11 11
17 19 19 21 23 22 18 18 22 27 29 28 29 29 28 28 29 28 27 26 25 24 25 25 25 25 25 26 27 28 28 29 28 27 27 26 25 25 24 24 24 23 22 20 19 17 15 13 13 13 14 15 15 16 16 16 15 15 14 15 15 15 15 16 15 14 14 14 15 15 15 15 15 15 14 13 13 14 14 14 13 12 12 13 13
14 17 19 19 20 22 23 23 22 21 21 23 25 26 26 26 27 27 26 25 25 26 27 28 28 29 29 29 29 29 29 29 28 27 26 25 24 23 23 22 21 20 19 18 17 15 14 14 14 14 15 15 15 15 16 16 15 14 14 14 15 15 16 16 16 15 15 15 16 17 18 17 16 16 16 15 14 14 14 14 13 13 13 13 13
11 15 18 18 16 17 19 21 22 22 21 19 20 21 21 23 24 26 28 28 28 28 28 29 29 29 28 27 26 26 25 25 25 25 24 23 23 22 21 20 19 18 17 16 15 14 13 14 14 14 14 15 15 15 15 15 14 13 12 12 13 14 15 14 13 13 13 13 14 16 17 17 17 17 17 17 15 15 14 15 15 14 14 14 14
10 14 18 19 17 15 14 14 14 16 18 19 19 19 19 19 19 21 24 26 26 27 27 26 26 25 24 23 22 21 20 20 21 21 21 21 20 19 18 18 17 17 16 16 15 15 15 15 14 14 13 14 14 14 14 13 12 12 11 11 11 12 12 11 11 11 11 12 13 13 14 15 15 16 17 17 15 14 14 15 16 16 16 15 16
10 12 15 18 19 18 17 15 13 13 13 15 16 17 17 17 17 18 18 18 19 21 23 22 21 21 21 20 20 19 19 19 20 21 20 19 18 16 15 14 15 15 15 16 16 16 15 14 13 13 13 13 13 12 12 12 11 11 11 11 11 11 11 10 10 11 11 11 11 11 12 12 12 13 15 15 15 14 14 15 16 16 17 17 17
11 12 14 16 18 19 19 18 17 17 16 15 15 15 15 15 15 15 16 16 17 19 20 20 20 20 20 20 20 20 20 20 20 20 19 19 18 16 15 14 14 14 14 14 14 14 14 13 13 13 12 12 11 11 10 10 10 10 10 10 10 10 10 9 9 9 9 9 9 9 9 9 10 11 12 13 14 14 15 15 15 16 17 17 17
Wind_Direction
215 217 217 218 219 220 222 222 221 222 222 223 224 225 226 227 228 229 229 230 230 229 229 231 231 231 231 230 227 222 219 218 216 214 217 217 214 212 211 212 215 214 214 217 217 216 216 215 214 214 217 221 222 219 222 238 255 264 274 284 288 287 284 285 289 286 274 280 296 310 323 324 329 331 329 332 335 332 331 332 332 335 339 340 342
215 218 219 218 219 221 222 223 222 223 223 223 224 225 225 226 227 228 229 230 230 229 228 230 231 231 231 231 229 224 220 220 220 218 219 219 217 216 215 214 216 216 216 219 221 223 224 223 221 222 226 233 239 237 231 236 250 262 270 278 284 288 290 289 292 296 301 309 317 326 335 331 330 335 334 335 340 339 339 343 345 347 350 350 350
216 218 219 220 220 221 222 223 223 223 223 224 225 225 225 226 227 228 229 230 231 230 228 229 230 230 231 231 229 226 222 221 222 223 223 222 220 219 220 219 218 218 220 222 223 226 229 231 230 229 233 239 243 246 245 243 247 254 259 267 272 274 280 285 290 298 304 310 319 328 332 328 327 333 335 335 338 338 342 348 351 353 354 353 351
216 218 220 221 221 220 221 223 223 223 224 224 225 225 226 227 227 228 229 230 231 231 229 228 229 229 230 230 229 226 223 221 222 225 225 225 224 222 222 224 224 223 222 223 223 226 231 235 238 237 238 241 243 245 245 245 247 251 252 254 259 264 270 277 284 292 296 301 312 321 322 322 324 330 333 334 336 338 342 344 346 348 350 350 348
215 217 219 221 220 220 221 222 222 223 224 225 225 225 226 227 227 228 229 229 230 231 229 227 227 227 228 230 229 227 224 222 222 224 225 224 224 225 225 226 228 229 228 225 224 226 230 234 238 241 241 243 244 245 245 244 244 247 249 248 251 256 260 265 272 278 283 290 301 310 313 316 321 327 332 333 334 336 339 340 340 341 342 343 343
214 217 219 220 221 221 221 221 222 223 224 224 225 225 225 226 227 228 228 228 228 228 228 225 224 226 227 228 230 228 226 225 225 226 226 225 225 226 226 227 230 232 234 232 229 229 231 234 236 238 241 244 247 249 249 249 248 247 249 249 250 253 255 258 263 268 274 283 295 304 310 315 319 324 330 329 328 331 334 334 334 335 335 334 335
214 216 219 220 221 221 221 221 222 223 223 224 224 224 224 224 226 227 227 226 225 225 226 225 224 225 226 227 229 229 228 227 227 228 229 229 230 229 227 228 230 234 237 238 237 234 234 236 237 237 240 244 249 252 252 252 252 251 251 253 254 256 258 261 263 268 276 286 295 303 310 315 316 322 327 325 323 326 328 325 327 331 331 327 326
214 216 219 221 222 222 221 222 222 223 223 223 223 223 223 222 224 226 227 225 223 223 224 224 224 225 226 227 228 229 229 229 228 229 230 232 234 234 232 230 231 234 238 240 242 241 239 240 241 240 241 243 247 251 254 254 255 254 254 255 257 259 262 265 268 272 279 287 296 304 309 311 313 317 321 320 319 322 323 318 318 322 324 322 322
214 216 219 221 222 222 221 221 221 221 222 222 222 222 222 222 222 224 226 225 222 221 222 224 224 224 225 226 228 229 229 229 230 230 231 232 235 236 236 235 235 236 239 241 244 246 246 245 245 243 243 245 247 250 252 254 255 256 256 256 257 260 263 266 268 272 279 287 295 303 305 307 310 313 316 318 317 319 319 312 310 312 313 315 320
214 216 219 222 222 221 220 219 219 219 220 221 221 221 221 221 220 222 225 225 222 218 218 221 223 224 225 225 226 228 229 230 231 232 233 234 236 237 237 238 239 239 241 243 244 246 247 247 247 246 245 245 246 249 252 254 255 256 257 257 258 259 262 264 267 273 280 286 293 299 300 303 309 312 313 315 315 313 310 304 303 306 309 312 316
215 217 219 221 221 220 219 219 218 218 219 220 221 220 220 219 219 220 223 224 222 218 215 218 222 224 225 226 226 227 228 230 231 232 234 236 237 238 238 239 241 242 243 245 246 248 248 248 248 248 247 246 244 247 253 257 259 260 261 260 260 259 260 262 266 272 278 284 290 294 295 299 307 310 309 311 312 309 305 302 302 305 308 308 310
216 218 219 220 220 220 219 219 218 218 218 219 220 219 218 218 217 217 220 222 223 219 215 215 220 224 225 227 228 228 229 231 232 232 234 235 236 238 239 240 242 243 245 247 249 250 250 250 250 249 248 245 242 244 250 256 258 261 264 265 265 265 263 263 265 271 275 280 287 291 293 298 303 306 307 308 307 305 302 302 302 303 303 303 305
217 218 219 219 220 221 220 219 218 218 219 219 219 219 217 217 216 216 217 220 222 221 217 214 217 223 225 226 228 230 231 233 234 233 234 235 236 237 238 240 242 244 246 247 249 251 252 252 251 250 249 245 240 240 245 249 253 256 261 265 266 265 264 263 264 269 273 277 283 288 293 297 299 302 306 304 300 298 298 299 301 299 298 299 304
218 218 219 219 221 221 221 221 220 219 219 219 219 218 217 216 216 215 215 217 220 221 220 215 215 220 225 228 230 231 233 234 235 235 235 235 236 237 238 240 242 244 246 248 249 251 252 253 253 253 251 249 244 242 244 246 250 253 257 261 262 261 261 262 265 269 273 277 281 286 292 295 295 299 303 297 292 293 295 298 301 298 295 298 305
218 220 219 220 221 221 221 222 221 220 219 219 218 219 218 216 216 215 214 215 218 221 222 219 215 216 222 227 231 232 235 237 237 237 237 235 236 237 238 239 241 243 245 247 249 251 252 253 255 255 253 250 247 245 247 250 253 255 258 261 262 262 263 264 268 273 276 279 281 285 289 291 292 297 301 295 290 291 294 297 299 297 295 300 308
218 221 221 220 221 222 222 221 221 220 220 219 218 219 218 217 216 215 213 214 217 220 222 222 218 216 218 224 229 232 235 238 240 240 240 238 236 237 238 239 240 242 244 245 247 250 251 252 253 254 254 251 246 243 243 246 250 254 258 262 263 265 266 268 272 276 278 280 281 284 287 289 292 295 296 290 287 290 291 293 297 298 297 300 307
219 221 222 221 221 222 222 221 221 221 219 219 219 219 219 218 216 215 213 213 216 218 221 222 222 219 217 220 224 229 233 237 239 241 242 242 238 237 237 238 240 241 243 244 245 247 249 251 252 253 253 252 248 244 241 241 244 248 254 258 262 265 268 271 275 277 279 282 283 285 287 288 288 288 284 279 281 285 285 289 297 300 296 297 304
220 221 223 223 221 221 222 222 221 221 220 219 219 219 219 219 217 215 213 213 215 218 220 221 223 223 221 219 221 226 230 234 237 240 242 243 241 239 238 238 239 241 242 243 243 244 246 248 250 252 255 255 254 252 248 246 245 247 252 256 261 265 270 275 278 281 283 285 286 287 287 287 286 283 278 274 275 277 280 287 296 296 292 297 303
221 222 223 224 222 220 221 223 223 222 221 220 220 219 219 219 218 216 214 213 214 217 219 221 222 224 224 223 222 223 227 231 234 237 240 241 242 242 240 239 240 242 243 243 242 242 243 246 248 250 255 259 259 259 258 256 255 255 256 258 261 266 273 278 280 282 284 285 285 285 285 285 283 279 276 271 268 269 275 284 292 292 293 299 303
224 224 224 225 224 221 221 223 223 223 222 221 220 219 219 219 218 217 215 214 214 216 219 221 221 223 225 225 224 224 225 227 230 233 236 238 239 239 239 240 243 246 247 247 245 244 244 245 248 250 255 259 261 262 262 261 262 263 263 262 264 271 278 281 280 281 282 282 283 283 283 283 281 278 276 273 268 269 275 282 287 288 291 297 299
228 225 226 227 226 223 221 222 223 223 223 222 220 219 219 219 218 218 216 215 214 214 217 220 222 223 225 225 225 226 226 227 228 230 233 236 237 237 238 241 246 250 252 253 253 253 251 250 250 252 254 258 260 262 263 264 265 266 266 267 271 277 280 280 280 280 280 280 281 281 281 281 280 278 276 274 272 273 275 278 281 283 287 293 295
232 227 227 228 227 225 222 221 222 222 222 222 220 220 219 218 218 218 217 215 214 214 215 219 221 223 225 226 227 228 229 230 231 231 233 235 237 238 239 244 248 251 252 255 257 259 259 258 256 256 255 256 258 259 261 262 264 264 266 269 272 274 275 276 277 277 276 277 276 275 275 275 275 276 278 279 281 280 280 279 280 282 287 292 293
237 228 227 228 228 226 223 221 221 220 220 220 220 219 219 218 218 218 217 215 214 214 214 217 220 222 224 226 228 229 230 232 233 234 234 235 237 238 240 245 249 250 252 255 258 260 261 262 261 260 258 257 256 256 257 258 260 261 263 265 267 268 269 269 270 270 271 272 272 272 271 270 268 268 271 277 282 282 280 280 279 280 287 292 291
241 230 227 227 228 227 225 222 221 220 219 219 219 219 219 218 217 217 216 215 215 214 214 215 218 221 223 225 227 229 230 231 234 235 234 235 236 238 240 243 246 249 251 254 257 259 261 262 262 262 261 259 258 258 257 257 258 259 261 262 261 261 261 261 263 265 267 269 271 274 277 275 272 268 266 266 268 270 273 275 276 278 284 287 283
243 232 227 226 226 226 225 223 222 221 219 218 218 219 218 218 217 217 216 216 215 215 214 214 215 218 221 224 226 229 231 231 233 236 236 236 237 238 239 241 243 246 249 252 256 258 260 261 262 261 260 259 258 258 258 258 258 259 260 258 255 254 255 258 261 264 267 272 277 282 286 288 287 283 276 269 265 267 271 273 274 277 280 280 276
242 234 227 226 225 223 222 221 221 221 219 218 219 219 219 219 218 217 217 216 216 216 215 215 215 216 219 223 226 229 231 232 234 237 238 237 237 238 240 242 243 244 247 251 253 255 257 259 260 260 260 259 258 257 257 258 259 259 258 257 254 254 256 259 263 267 272 279 285 289 293 295 294 291 286 276 270 269 271 271 272 275 276 274 275
241 233 227 224 224 222 220 219 220 219 218 218 219 219 220 220 219 219 218 217 217 216 216 216 216 216 217 220 223 228 230 232 234 237 237 236 237 239 241 242 242 242 244 247 249 251 253 254 255 256 257 257 256 254 254 254 254 255 256 257 258 259 262 264 268 272 276 281 286 290 293 294 292 291 287 281 276 273 270 270 272 273 272 271 275
240 231 226 223 222 221 220 219 218 217 217 217 218 219 220 221 221 221 220 218 216 215 215 216 217 218 218 218 220 223 227 231 234 237 238 238 239 240 240 240 238 239 242 244 245 247 249 250 252 254 255 254 252 251 250 250 251 253 255 258 259 261 263 265 267 271 275 282 287 289 289 289 289 288 284 278 274 271 269 272 274 271 268 270 274
238 230 225 222 221 221 221 219 217 216 217 218 219 221 222 222 223 224 223 221 219 217 216 217 219 220 220 220 220 221 224 229 234 238 240 241 242 244 244 243 242 242 244 245 244 243 244 246 249 251 253 254 253 251 250 250 251 253 256 258 259 260 261 263 267 272 278 284 287 288 287 284 280 276 271 269 269 269 270 270 268 263 263 267 272
229 226 222 221 221 220 219 217 215 215 217 217 218 220 222 223 224 225 225 223 223 222 222 222 224 224 224 225 226 227 230 234 236 238 240 242 244 246 248 249 248 248 249 247 242 239 240 243 245 247 251 253 255 256 255 254 253 253 256 259 260 261 264 266 271 276 279 280 284 287 281 272 267 267 266 266 266 265 263 259 256 255 256 261 269
223 223 221 220 220 220 218 216 214 214 216 218 218 219 221 223 225 226 226 224 224 224 225 226 227 227 227 228 230 231 234 236 237 238 239 240 241 244 246 248 248 247 247 246 240 236 236 240 243 245 249 253 257 260 261 260 258 257 258 261 263 265 268 270 272 272 269 270 275 273 261 258 264 268 268 267 266 262 256 252 249 248 248 256 269
221 222 221 219 218 218 216 215 215 214 214 216 217 219 220 222 224 225 225 224 223 224 224 225 227 229 229 231 232 232 233 234 235 237 239 240 240 243 245 247 245 240 238 239 239 238 239 242 245 247 249 253 258 263 265 264 263 262 263 265 269 269 268 269 270 267 265 268 267 256 253 262 268 267 265 265 263 258 252 240 231 238 251 262 270
228 228 226 220 215 213 211 211 211 211 211 213 215 216 218 221 223 223 223 222 222 223 223 224 226 227 228 230 232 234 236 236 236 237 237 238 240 241 241 242 238 232 231 233 235 236 237 241 246 249 251 254 260 266 268 268 267 266 266 268 270 268 265 267 267 264 264 264 256 244 248 261 265 261 258 260 259 255 246 233 230 250 266 266 262
237 235 234 229 221 215 212 211 211 213 214 215 216 216 217 219 222 223 223 221 219 220 220 221 223 224 225 227 229 232 233 234 235 236 235 234 233 232 231 231 229 226 228 232 235 236 237 239 242 245 249 254 261 266 268 269 269 268 266 262 261 262 263 263 259 256 256 256 249 242 246 255 258 253 250 253 256 251 241 240 250 262 262 249 244
242 240 240 238 232 224 218 215 215 216 216 216 217 219 219 221 223 224 224 222 219 218 217 218 219 220 222 224 226 227 227 227 228 230 230 227 223 221 221 223 225 226 228 231 234 236 238 240 241 243 247 253 259 264 267 268 265 260 255 250 248 251 254 255 253 250 250 249 246 243 244 250 253 250 246 249 251 248 248 255 259 254 239 234 243
244 243 241 240 237 231 226 224 222 221 219 218 218 217 217 219 221 220 220 219 217 216 215 215 216 217 218 220 222 221 221 221 220 221 222 222 221 221 222 224 226 228 230 232 234 234 234 235 239 243 249 255 259 261 262 263 261 255 249 244 243 246 249 251 250 248 245 242 239 238 242 248 251 249 248 249 253 258 262 261 249 233 238 247 248
241 238 240 244 241 234 232 232 230 226 224 222 219 215 214 215 216 216 216 215 214 213 211 210 211 213 214 216 217 217 216 216 214 213 216 217 220 223 225 226 228 230 230 232 232 231 231 233 238 244 250 256 259 258 255 255 255 253 249 244 242 243 244 242 239 238 236 232 231 234 242 248 248 247 248 251 257 261 255 234 218 227 242 243 244
236 230 235 242 239 228 228 229 229 227 226 224 220 215 212 212 212 212 214 215 213 211 208 207 208 210 211 211 212 212 211 211 210 210 212 213 216 219 220 220 223 225 226 227 229 229 231 234 239 245 250 255 259 260 257 254 250 247 244 242 241 239 235 231 229 228 226 225 230 239 245 246 245 246 247 248 249 244 223 208 217 234 238 236 242
30 278 219 196 177 195 213 220 223 224 223 221 216 212 210 210 210 209 210 213 213 210 207 204 205 207 209 210 210 209 210 211 211 211 211 212 214 217 217 216 218 221 223 225 227 229 232 235 238 243 249 254 256 256 254 252 247 241 237 234 232 229 225 223 224 227 229 233 241 246 246 240 236 238 237 233 229 224 218 219 226 231 233 236 239
42 43 139 179 184 196 207 213 218 220 218 212 208 204 203 205 206 205 205 209 210 208 204 203 202 202 204 208 212 213 215 215 214 213 213 213 214 215 216 218 220 223 224 225 226 228 230 232 233 237 240 243 243 243 243 242 237 230 223 219 215 213 215 219 225 231 238 241 239 232 225 218 221 229 229 216 210 212 219 224 227 230 237 244 243
46 56 79 167 186 195 201 205 211 216 215 210 206 202 199 200 202 202 203 205 205 203 202 202 200 198 198 203 210 214 216 217 217 215 214 213 213 214 216 217 220 221 222 222 222 223 223 226 230 233 234 234 234 234 234 232 226 220 218 218 219 220 224 226 221 215 214 211 204 198 198 202 208 210 207 201 203 209 219 227 232 235 240 246 248
40 52 66 112 168 180 178 173 176 188 196 198 196 194 194 195 196 197 198 199 199 198 198 197 194 192 193 197 203 208 210 211 211 210 210 210 211 212 211 209 209 212 213 214 215 216 219 224 228 230 231 233 233 229 224 224 226 228 227 225 223 220 214 205 191 181 183 188 187 183 183 188 195 198 199 203 213 222 228 233 235 238 242 248 252
32 43 57 73 111 143 139 132 143 167 180 181 179 181 184 184 185 186 188 188 188 189 188 184 181 183 186 190 199 207 208 205 201 199 198 200 201 201 200 200 202 205 206 207 209 213 218 221 223 224 226 229 229 223 217 219 225 228 225 219 212 206 200 193 184 180 182 184 182 178 176 176 178 186 197 208 218 226 230 231 230 233 241 246 247
33 36 47 59 76 109 121 114 124 150 167 170 169 173 176 175 174 175 175 174 175 178 178 176 177 182 186 190 197 204 203 199 195 191 190 191 193 194 196 198 200 201 202 204 207 211 215 217 219 220 219 216 211 207 206 206 207 205 200 195 194 193 192 189 185 184 186 186 186 186 184 178 173 173 181 193 201 205 210 217 221 226 230 230 229
47 42 44 50 60 77 96 97 105 125 142 149 153 156 157 156 157 160 162 164 168 172 174 174 178 182 183 183 185 188 189 189 190 190 191 192 194 195 196 197 198 198 198 199 199 200 203 206 208 209 207 201 195 191 190 189 187 185 183 183 185 188 190 191 189 187 190 194 198 199 196 189 185 185 188 195 200 200 201 206 214 220 225 228 231
59 58 55 53 56 62 67 73 91 110 124 131 134 138 140 142 146 151 155 160 165 167 167 168 170 171 171 172 173 176 178 180 182 183 184 185 185 185 185 187 188 189 189 187 184 184 186 190 192 194 193 189 185 185 185 183 181 178 177 179 182 183 186 189 190 190 191 194 198 202 202 198 196 196 196 197 201 203 205 210 218 225 232 237 241
65 70 70 65 61 61 59 58 66 84 103 116 124 128 132 138 142 145 148 152 158 160 161 161 163 163 163 164 165 166 168 170 171 172 173 172 172 172 173 176 179 179 178 175 174 173 174 176 177 181 182 181 180 181 181 179 177 175 175 178 182 184 186 189 193 196 199 201 204 209 212 212 212 211 211 211 213 215 217 220 225 230 234 239 243
71 79 81 79 73 68 66 62 59 60 70 89 104 114 122 128 133 138 142 145 148 152 155 156 156 155 155 155 156 158 161 164 164 164 165 166 166 167 168 170 172 174 173 171 170 169 170 170 172 175 178 178 178 178 176 175 176 178 180 185 190 191 192 194 196 200 205 210 214 218 222 225 227 227 227 227 227 228 230 232 235 237 239 242 245
80 86 90 90 87 81 80 79 72 62 61 68 81 95 109 117 124 132 138 140 140 144 148 150 150 150 150 151 151 153 157 160 161 162 164 165 164 165 165 165 166 167 167 164 161 159 159 160 160 161 164 166 168 170 172 174 176 179 181 186 190 192 194 197 201 205 210 215 218 222 226 231 234 236 237 239 240 242 244 245 245 247 249 252 255
99 96 97 98 96 94 93 95 97 94 87 78 75 79 86 96 109 123 132 136 139 143 146 148 150 150 151 151 152 153 154 153 152 151 151 152 153 155 155 155 156 156 156 154 152 151 152 154 157 160 163 165 167 171 176 179 181 181 182 185 189 193 197 203 209 215 218 220 224 228 232 237 240 242 245 248 250 252 254 254 254 256 259 262 265
117 110 106 104 104 105 106 104 104 105 105 103 100 93 85 82 91 106 117 127 138 143 142 142 145 146 146 147 149 150 150 149 148 146 144 144 145 146 146 147 148 149 148 149 150 152 153 156 160 165 167 166 166 167 168 171 173 175 177 183 189 196 201 208 215 221 225 229 235 241 246 251 253 253 253 255 256 257 259 259 259 260 262 265 268